MSR91 KLAX-HECA

Flight info

Callsign MSR91
Flight time N/A
Altitude 38000
Route LADYJ4 CSTRO DCT CANDA DCT KU69K DCT KU06O DCT YYN DCT ELTAX DCT YYQ DCT 6030N09000W 63N080W 65N070W/M084F380 DCT EPMAN DCT 67N050W 67N040W 6630N03000W 65N020W 63N010W DCT PEMOS/N0481F380 DCT KLONN DCT BAVTA DCT DOSUR DCT NUSGU DCT GODUR DCT HDO DCT ODNEM DCT PARAK DCT OBLAK DCT NISVA DCT NIKTI DCT RUPUM DCT KUMBI L612 BLT A16 CVO
Aircraft A359/H-SDE2E3GHIJ3J4J5LM1ORWXY/LB1D1

Departure

Time 2026-04-25 20:23
Airport Los Angeles International Airport (KLAX)

Arrival

Time N/A
Airport Cairo International Airport (HECA)
Time Latitude Longitude Altitude Speed Heading
2026-04-25 19:48 33.94518 -118.41143 101 ft 0 kts 83°
2026-04-25 20:09 33.94517 -118.41157 102 ft 3 kts 83°
2026-04-25 20:09 33.94514 -118.41182 100 ft 3 kts 83°
2026-04-25 20:09 33.94512 -118.41206 99 ft 2 kts 83°
2026-04-25 20:09 33.94510 -118.41223 100 ft 3 kts 71°
2026-04-25 20:10 33.94507 -118.41234 100 ft 3 kts 51°
2026-04-25 20:10 33.94492 -118.41249 100 ft 3 kts 10°
2026-04-25 20:10 33.94473 -118.41251 100 ft 3 kts 357°
2026-04-25 20:10 33.94458 -118.41249 100 ft 1 kts 353°
2026-04-25 20:11 33.94457 -118.41249 100 ft 0 kts 353°
2026-04-25 20:15 33.94540 -118.41261 101 ft 25 kts 353°
2026-04-25 20:16 33.94683 -118.41284 104 ft 13 kts 351°
2026-04-25 20:16 33.94786 -118.41268 105 ft 20 kts 45°
2026-04-25 20:16 33.94811 -118.41102 107 ft 21 kts 83°
2026-04-25 20:16 33.94829 -118.40926 106 ft 22 kts 84°
2026-04-25 20:17 33.94851 -118.40719 106 ft 26 kts 82°
2026-04-25 20:17 33.94872 -118.40505 106 ft 26 kts 80°
2026-04-25 20:17 33.94899 -118.40266 106 ft 29 kts 84°
2026-04-25 20:17 33.94922 -118.40032 105 ft 16 kts 83°
2026-04-25 20:18 33.94929 -118.39967 106 ft 8 kts 82°
2026-04-25 20:18 33.94946 -118.39931 107 ft 0 kts 40°
2026-04-25 20:19 33.94952 -118.39927 107 ft 5 kts 33°
2026-04-25 20:19 33.95012 -118.39916 113 ft 7 kts 343°
2026-04-25 20:20 33.95034 -118.39960 111 ft 10 kts 286°
2026-04-25 20:20 33.95035 -118.40007 112 ft 0 kts 265°
2026-04-25 20:22 33.95007 -118.40284 114 ft 65 kts 262°
2026-04-25 20:22 33.94926 -118.41082 114 ft 125 kts 263°
2026-04-25 20:23 33.94796 -118.42338 152 ft 173 kts 259°
2026-04-25 20:23 33.94693 -118.43777 811 ft 171 kts 259°
2026-04-25 20:23 33.94527 -118.45196 1559 ft 173 kts 259°
2026-04-25 20:23 33.94361 -118.46689 1847 ft 187 kts 260°
2026-04-25 20:24 33.94250 -118.48322 2100 ft 203 kts 265°